Barona (240, 974, 635) Station Data

Red Flag Warning: No
Fire Weather Zone: 250
SDGE Region: Eastern
Lat/Lon: 32.935/-116.877

Observations

Time Wind Speed/Gust Temp(F) RH Fuel Moist Fuel Temp(F) Dewpt(F) Tmax(F) Tmin(F) Accum Precip 10-min Precip SL Press(mb)
4/26 2:40am 296 1 G 2 48° 81% - - 43° 52.3° 48.1° - - -
4/26 2:30am 190 1 G 3 48° 80% - - 42° 52.3° 48.1° - - -
4/26 2:20am 128 2 G 3 49° 79% - - 43° 52.3° 48.6° - - -
4/26 2:10am 70 2 G 3 49° 79% - - 43° 52.3° 48.6° - - -
4/26 2:00am 202 1 G 2 49° 78% - - 42° 52.3° 48.6° - - -
4/26 1:50am 70 1 G 3 49° 78% - - 43° 52.3° 48.8° - - -
4/26 1:40am 2 1 G 2 50° 79% - - 43° 52.3° 49.2° - - -
4/26 1:30am 200 1 G 2 49° 78% - - 43° 52.3° 49.2° - - -
4/26 1:20am 126 1 G 2 50° 77% - - 43° 52.3° 49.6° - - -
4/26 1:10am 317 1 G 2 50° 77% - - 43° 52.3° 49.9° - - -
4/26 1:00am 146 1 G 2 50° 76% - - 43° 52.3° 50° - - -
4/26 12:50am 137 1 G 2 51° 75% - - 43° 52.3° 50.4° - - -
4/26 12:40am 254 0 G 1 51° 75% - - 43° 52.3° 50.8° - - -
4/26 12:30am 188 1 G 2 51° 74% - - 43° 52.3° 51° - - -
4/26 12:20am 91 2 G 3 52° 74% - - 44° 52.3° 51.2° - - -
4/26 12:10am 231 1 G 2 52° 74% - - 44° 52.3° 51.6° - - -
4/26 12:00am 297 1 G 2 52° 75% - - 44° 65.7° 51.5° - - -
4/25 11:50pm 124 1 G 2 52° 75% - - 44° 65.7° 51.5° - - -
4/25 11:40pm 151 1 G 2 52° 74% - - 44° 65.7° 51.5° - - -
4/25 11:30pm 317 1 G 2 53° 75% - - 45° 65.7° 51.8° - - -
4/25 11:20pm 31 1 G 2 52° 76% - - 45° 65.7° 51.8° - - -
4/25 11:10pm 156 1 G 3 52° 75% - - 44° 65.7° 51.8° - - -
4/25 11:00pm 135 1 G 2 53° 74% - - 45° 65.7° 52.5° - - -
4/25 10:50pm 71 1 G 2 54° 72% - - 45° 65.7° 53.2° - - -
4/25 10:40pm 44 1 G 2 54° 73% - - 45° 65.7° 53.4° - - -
4/25 10:30pm 127 1 G 2 54° 71% - - 45° 65.7° 53.7° - - -
4/25 10:20pm 132 0 G 2 55° 70% - - 45° 65.7° 54.4° - - -
4/25 10:10pm 116 1 G 2 55° 69% - - 45° 65.7° 54.4° - - -
4/25 10:00pm 90 2 G 3 55° 69% - - 45° 65.7° 54.4° - - -
4/25 9:50pm 99 1 G 2 55° 69% - - 45° 65.7° 54.4° - - -
4/25 9:40pm 152 1 G 2 55° 68% - - 45° 65.7° 54.4° - - -
4/25 9:30pm 97 2 G 3 56° 67% - - 45° 65.7° 54.4° - - -
4/25 9:20pm 348 2 G 3 56° 67% - - 46° 65.7° 54.4° - - -
4/25 9:10pm 76 1 G 3 57° 65% - - 46° 65.7° 54.4° - - -
4/25 9:00pm 91 1 G 3 57° 65% - - 45° 65.7° 54.4° - - -
4/25 8:50pm 246 0 G 2 58° 63% - - 45° 65.7° 54.4° - - -
4/25 8:40pm 269 1 G 2 57° 64% - - 45° 65.7° 54.4° - - -
4/25 8:30pm 275 1 G 2 57° 63% - - 45° 65.7° 54.4° - - -
4/25 8:20pm 255 0 G 2 58° 63% - - 45° 65.7° 54.4° - - -
4/25 8:10pm 195 1 G 3 58° 63% - - 45° 65.7° 54.4° - - -
4/25 8:00pm 207 3 G 6 58° 62% - - 46° 65.7° 54.4° - - -
4/25 7:50pm 230 5 G 8 59° 62% - - 46° 65.7° 54.4° - - -
4/25 7:40pm 235 5 G 8 59° 62% - - 46° 65.7° 54.4° - - -
4/25 7:30pm 232 4 G 7 59° 61% - - 46° 65.7° 54.4° - - -
4/25 7:20pm 224 5 G 9 60° 60% - - 46° 65.7° 54.4° - - -
4/25 7:10pm 237 5 G 8 60° 60% - - 46° 65.7° 54.4° - - -
4/25 7:00pm 245 6 G 10 60° 59% - - 46° 65.7° 54.4° - - -
4/25 6:50pm 241 7 G 10 60° 58% - - 46° 65.7° 54.4° - - -
4/25 6:40pm 241 8 G 12 61° 58% - - 46° 65.7° 54.4° - - -
4/25 6:30pm 238 8 G 13 61° 57% - - 46° 65.7° 54.4° - - -
4/25 6:20pm 236 8 G 13 61° 57% - - 46° 65.7° 54.4° - - -
4/25 6:10pm 232 9 G 12 61° 56% - - 46° 65.7° 54.4° - - -
4/25 6:00pm 231 8 G 12 62° 55% - - 45° 65.7° 54.4° - - -
4/25 5:50pm 234 8 G 12 62° 55% - - 46° 65.7° 54.4° - - -
4/25 5:40pm 233 8 G 14 62° 56% - - 46° 65.7° 54.4° - - -
4/25 5:30pm 234 9 G 15 62° 58% - - 47° 65.7° 54.4° - - -
4/25 5:20pm 245 8 G 14 63° 58% - - 48° 65.7° 54.4° - - -
4/25 5:10pm 236 8 G 13 63° 59% - - 48° 65.7° 54.4° - - -
4/25 5:00pm 236 8 G 14 63° 59% - - 48° 65.7° 54.4° - - -
4/25 4:50pm 236 8 G 13 63° 58% - - 48° 65.7° 54.4° - - -
4/25 4:40pm 234 7 G 13 63° 58% - - 48° 65.7° 54.4° - - -
4/25 4:30pm 235 8 G 14 64° 57% - - 48° 65.7° 54.4° - - -
4/25 4:20pm 233 9 G 12 64° 56% - - 48° 65.7° 54.4° - - -
4/25 4:10pm 232 8 G 15 63° 56% - - 48° 65.7° 54.4° - - -
4/25 4:00pm 236 9 G 14 64° 55% - - 47° 65.7° 54.4° - - -
4/25 3:50pm 235 9 G 15 64° 54% - - 47° 65.7° 54.4° - - -
4/25 3:40pm 227 7 G 12 64° 53% - - 47° 65.7° 54.4° - - -
4/25 3:30pm 232 6 G 14 65° 53% - - 47° 65.7° 54.4° - - -
4/25 3:20pm 227 6 G 13 64° 54% - - 47° 65.7° 54.4° - - -
4/25 3:10pm 225 7 G 12 64° 55% - - 47° 65.7° 54.4° - - -
4/25 3:00pm 232 7 G 13 64° 56% - - 48° 65.7° 54.4° - - -
4/25 2:50pm 235 8 G 13 64° 56% - - 48° 65.7° 54.4° - - -
4/25 2:40pm 230 7 G 11 64° 56% - - 48° 65.7° 54.4° - - -
4/25 2:30pm 237 6 G 14 65° 55% - - 48° 65.7° 54.4° - - -
4/25 2:20pm 249 6 G 12 65° 55% - - 48° 65.7° 54.4° - - -
4/25 2:10pm 271 5 G 9 65° 54% - - 48° 65.7° 54.4° - - -
4/25 2:00pm 226 7 G 14 65° 54% - - 47° 65.7° 54.4° - - -
4/25 1:50pm 227 8 G 16 65° 53% - - 48° 65.7° 54.4° - - -
4/25 1:40pm 232 8 G 14 65° 53% - - 47° 65.7° 54.4° - - -
4/25 1:30pm 225 8 G 13 65° 53% - - 47° 65.7° 54.4° - - -
4/25 1:20pm 224 8 G 13 65° 54% - - 48° 65.1° 54.4° - - -
4/25 1:10pm 230 7 G 13 64° 54% - - 48° 65° 54.4° - - -
4/25 1:00pm 231 7 G 15 64° 54% - - 47° 65° 54.4° - - -
4/25 12:50pm 229 8 G 14 64° 53% - - 47° 65° 54.4° - - -
4/25 12:40pm 234 8 G 12 64° 53% - - 47° 65° 54.4° - - -
4/25 12:30pm 230 7 G 16 64° 52% - - 47° 65° 54.4° - - -
4/25 12:20pm 228 7 G 12 64° 52% - - 46° 64.7° 54.4° - - -
4/25 12:10pm 230 8 G 17 64° 52% - - 46° 64.5° 54.4° - - -
4/25 12:00pm 225 5 G 12 64° 53% - - 46° 64.4° 54.4° - - -
4/25 11:50am 235 6 G 12 63° 55% - - 47° 64.1° 54.4° - - -
4/25 11:40am 217 6 G 11 63° 53% - - 46° 64° 54.4° - - -
4/25 11:30am 208 6 G 10 63° 53% - - 46° 63.8° 54.4° - - -
4/25 11:20am 241 5 G 12 63° 55% - - 46° 63.5° 54.4° - - -
4/25 11:10am 208 4 G 9 63° 53% - - 45° 63.4° 54.4° - - -
4/25 11:00am 208 4 G 10 63° 54% - - 46° 63.1° 54.4° - - -
4/25 10:50am 229 5 G 9 62° 58% - - 47° 62.3° 54.4° - - -
4/25 10:40am 234 5 G 9 62° 59% - - 47° 62.3° 54.4° - - -
4/25 10:30am 205 4 G 10 61° 60% - - 48° 61.9° 54.4° - - -
4/25 10:20am 221 4 G 8 60° 64% - - 48° 61.4° 54.4° - - -
4/25 10:10am 229 6 G 9 60° 66% - - 48° 60.6° 54.4° - - -
4/25 10:00am 248 4 G 8 59° 66% - - 48° 60.1° 54.4° - - -
4/25 9:50am 233 5 G 11 59° 67% - - 48° 60.1° 54.4° - - -
4/25 9:40am 199 6 G 10 59° 69% - - 49° 60.1° 54.4° - - -
4/25 9:30am 241 6 G 8 58° 73% - - 49° 58.3° 54.4° - - -
4/25 9:20am 239 4 G 9 58° 72% - - 49° 58.3° 54.4° - - -
4/25 9:10am 228 5 G 8 58° 73% - - 49° 58.3° 54.4° - - -
4/25 9:00am 226 6 G 9 58° 73% - - 49° 58.3° 54.4° - - -
4/25 8:50am 239 5 G 10 58° 73% - - 49° 58.3° 54.4° - - -
4/25 8:40am 248 6 G 10 57° 75% - - 49° 57.5° 54.4° - - -
4/25 8:30am 246 7 G 11 57° 75% - - 49° 56.9° 54.4° - - -
4/25 8:20am 215 7 G 11 57° 75% - - 49° 56.9° 54.4° - - -
4/25 8:10am 195 7 G 11 56° 75% - - 49° 56.7° 54.4° - - -
4/25 8:00am 200 6 G 10 56° 76% - - 49° 56.4° 54.4° - - -
4/25 7:50am 209 5 G 8 56° 78% - - 49° 56° 54.4° - - -
4/25 7:40am 218 7 G 11 55° 78% - - 49° 55.7° 54.4° - - -
4/25 7:30am 223 6 G 10 55° 79% - - 49° 55.7° 54.4° - - -
4/25 7:20am 224 5 G 9 55° 80% - - 49° 55.6° 54.4° - - -
4/25 7:10am 234 4 G 8 55° 80% - - 49° 55.6° 54.4° - - -
4/25 7:00am 235 5 G 8 55° 80% - - 49° 55.6° 54.4° - - -
4/25 6:50am 232 6 G 10 55° 80% - - 49° 55.6° 54.4° - - -
4/25 6:40am 228 6 G 11 55° 80% - - 49° 55.6° 54.4° - - -
4/25 6:30am 230 5 G 8 55° 80% - - 49° 55.6° 54.4° - - -
4/25 6:20am 228 5 G 10 55° 80% - - 49° 55.6° 54.4° - - -
4/25 6:10am 227 6 G 10 55° 80% - - 49° 55.6° 54.4° - - -
4/25 6:00am 222 6 G 10 55° 80% - - 49° 55.6° 54.4° - - -
4/25 5:50am 230 6 G 12 55° 80% - - 49° 55.6° 54.4° - - -
4/25 5:40am 220 6 G 11 55° 79% - - 49° 55.6° 54.4° - - -
4/25 5:30am 218 5 G 9 55° 78% - - 48° 55.6° 54.4° - - -
4/25 5:20am 217 5 G 9 55° 77% - - 48° 55.6° 54.4° - - -
4/25 5:10am 197 4 G 7 55° 77% - - 48° 55.6° 54.4° - - -
4/25 5:00am 212 4 G 7 55° 77% - - 48° 55.6° 54.4° - - -
4/25 4:50am 217 4 G 8 55° 77% - - 48° 55.6° 54.4° - - -
4/25 4:40am 213 4 G 7 55° 77% - - 48° 55.6° 54.4° - - -
4/25 4:30am 210 5 G 9 55° 77% - - 48° 55.6° 54.4° - - -
4/25 4:20am 210 4 G 8 55° 77% - - 48° 55.6° 54.4° - - -
4/25 4:10am 220 6 G 11 55° 77% - - 48° 55.6° 54.4° - - -
4/25 4:00am 210 7 G 11 55° 77% - - 48° 55.6° 54.4° - - -
4/25 3:50am 197 6 G 11 55° 77% - - 48° 55.6° 54.4° - - -
4/25 3:40am 192 6 G 10 55° 77% - - 48° 55.6° 54.4° - - -
4/25 3:30am 190 6 G 9 55° 78% - - 48° 55.6° 54.4° - - -
4/25 3:20am 203 5 G 8 55° 78% - - 48° 55.6° 54.4° - - -
4/25 3:10am 207 5 G 10 55° 78% - - 48° 55.6° 54.4° - - -
4/25 3:00am 210 6 G 12 55° 78% - - 48° 55.6° 54.4° - - -
4/25 2:50am 211 6 G 11 55° 79% - - 48° 55.6° 54.6° - - -
4/25 2:40am 209 7 G 15 55° 79% - - 48° 55.6° 54.6° - - -
4/25 2:30am 213 8 G 13 55° 79% - - 48° 55.6° 54.7° - - -
4/25 2:20am 216 6 G 11 55° 79% - - 49° 55.6° 54.7° - - -
4/25 2:10am 209 6 G 11 55° 80% - - 49° 55.6° 54.7° - - -
4/25 2:00am 216 6 G 12 55° 79% - - 49° 55.6° 54.8° - - -
4/25 1:50am 219 5 G 10 55° 78% - - 48° 55.6° 54.8° - - -
4/25 1:40am 190 6 G 9 55° 77% - - 48° 55.6° 54.8° - - -
4/25 1:30am 197 6 G 9 55° 77% - - 48° 55.5° 54.8° - - -
4/25 1:20am 209 6 G 9 55° 77% - - 48° 55.5° 54.8° - - -
4/25 1:10am 209 5 G 11 55° 77% - - 48° 55.5° 54.8° - - -
4/25 1:00am 193 6 G 10 55° 76% - - 48° 55.5° 54.8° - - -
4/25 12:50am 207 5 G 9 55° 77% - - 48° 55.4° 54.8° - - -
4/25 12:40am 208 6 G 11 55° 77% - - 48° 55.3° 54.8° - - -
4/25 12:30am 208 6 G 10 55° 78% - - 49° 55.3° 54.8° - - -
4/25 12:20am 206 6 G 10 55° 79% - - 49° 55.3° 54.8° - - -
4/25 12:10am 209 8 G 14 55° 80% - - 49° 55.3° 54.8° - - -
4/25 12:00am 204 9 G 15 55° 78% - - 49° 67.1° 53.5° - - -
4/24 11:50pm 193 6 G 14 56° 77% - - 49° 67.1° 53.5° - - -
4/24 11:40pm 200 6 G 9 56° 77% - - 48° 67.1° 53.5° - - -
4/24 11:30pm 203 5 G 8 55° 77% - - 48° 67.1° 53.5° - - -
4/24 11:20pm 199 5 G 9 56° 77% - - 48° 67.1° 53.5° - - -
4/24 11:10pm 210 5 G 8 56° 77% - - 48° 67.1° 53.5° - - -
4/24 11:00pm 210 5 G 11 56° 76% - - 48° 67.1° 53.5° - - -
4/24 10:50pm 218 7 G 11 56° 76% - - 48° 67.1° 53.5° - - -
4/24 10:40pm 213 7 G 11 56° 76% - - 48° 67.1° 53.5° - - -
4/24 10:30pm 212 6 G 10 56° 76% - - 49° 67.1° 53.5° - - -
4/24 10:20pm 205 6 G 11 56° 76% - - 49° 67.1° 53.5° - - -
4/24 10:10pm 211 5 G 10 56° 76% - - 49° 67.1° 53.5° - - -
4/24 10:00pm 211 5 G 8 56° 76% - - 49° 67.1° 53.5° - - -
4/24 9:50pm 204 6 G 10 56° 76% - - 49° 67.1° 53.5° - - -
4/24 9:40pm 205 6 G 9 56° 76% - - 49° 67.1° 53.5° - - -
4/24 9:30pm 194 6 G 10 57° 76% - - 49° 67.1° 53.5° - - -
4/24 9:20pm 195 5 G 9 57° 76% - - 49° 67.1° 53.5° - - -
4/24 9:10pm 204 4 G 7 57° 76% - - 50° 67.1° 53.5° - - -
4/24 9:00pm 235 5 G 9 57° 76% - - 50° 67.1° 53.5° - - -
4/24 8:50pm 245 5 G 9 58° 76% - - 50° 67.1° 53.5° - - -
4/24 8:40pm 238 6 G 10 58° 74% - - 50° 67.1° 53.5° - - -
4/24 8:30pm 219 4 G 8 58° 73% - - 49° 67.1° 53.5° - - -
4/24 8:20pm 210 4 G 7 58° 73% - - 49° 67.1° 53.5° - - -
4/24 8:10pm 205 4 G 8 58° 72% - - 49° 67.1° 53.5° - - -
4/24 8:00pm 230 4 G 8 58° 73% - - 49° 67.1° 53.5° - - -
4/24 7:50pm 233 6 G 9 58° 73% - - 49° 67.1° 53.5° - - -
4/24 7:40pm 228 4 G 8 58° 72% - - 49° 67.1° 53.5° - - -
4/24 7:30pm 245 6 G 10 58° 73% - - 50° 67.1° 53.5° - - -
4/24 7:20pm 249 6 G 10 59° 73% - - 50° 67.1° 53.5° - - -
4/24 7:10pm 245 6 G 12 59° 72% - - 50° 67.1° 53.5° - - -
4/24 7:00pm 245 7 G 12 59° 72% - - 50° 67.1° 53.5° - - -
4/24 6:50pm 240 8 G 12 60° 71% - - 50° 67.1° 53.5° - - -
4/24 6:40pm 251 7 G 12 60° 70% - - 50° 67.1° 53.5° - - -
4/24 6:30pm 251 7 G 14 61° 68% - - 50° 67.1° 53.5° - - -
4/24 6:20pm 241 6 G 12 61° 67% - - 50° 67.1° 53.5° - - -
4/24 6:10pm 243 8 G 13 61° 67% - - 50° 67.1° 53.5° - - -
4/24 6:00pm 249 7 G 14 62° 65% - - 50° 67.1° 53.5° - - -